Location: Perryvale
(54.4667°N, 113.3833°W)
Time: 20:06:51
(UTC+00:00)

Transit 2A - Pass Details

Date: 19 May 2024
Orbit: 592 x 959 km, 66.7° (Epoch: 19 June)

Event Time Altitude Azimuth Distance (km) Brightness Sun altitude
Exits shadow 06:35:48 23° 148° (SSE) 1,449 6.9 -14.7°
Maximum altitude 06:37:32 28° 114° (ESE) 1,286 6.9 -14.8°
Drops below altitude 10° 06:41:51 10° 56° (NE) 2,262 8.7 -14.9°
Sets 06:44:38 0° 45° (NE) 3,261 9.7 -15.0°
